User: anonymous
Location: French Creek State Gamelands
(40.1750°N, 75.7969°W)
Time: 05:08:35
(UTC-04:00)
Language:

ISS - Orbit

View from above orbital plane
View from above orbital plane
View from above satellite
View from above satellite

Ground track
Ground track

The orbit data is extracted from the following two-line orbital elements,

1 25544U 98067A   14207.10318472 -.00000564  00000-0 -17595-5 0  7717
2 25544 051.6478 266.6910 0006758 287.5398 170.4466 15.50438836897365
Epoch (UTC): 26 July 2014 02:28:35
Eccentricity: 0.0006758
inclination: 51.6478°
perigee height: 411 km
apogee height: 420 km
right ascension of ascending node: 266.6910°
argument of perigee: 287.5398°
revolutions per day: 15.50438836
mean anomaly at epoch: 170.4466°
orbit number at epoch: 89736

The dashed part of the orbit path shows where the satellite is in the earth's shadow,  

DLR